sat.trackr.live / text

‹ back to catalog

STARLINK-37308

NORAD 68952 · 2026-099B

PAYLOAD ACTIVE UNKNOWN

§ Identity

Operator
Country
US
Launch date
2026-05-01
Launch site
AFETR
Launch vehicle
Mass (kg)
RCS (m²)

Purposes: comms

External: N2YO · Heavens-Above · Gunter

§ Orbital elements

Epoch: 2026-05-25T04:00:03.998880Z

Period
92.92 min
Inclination
53.1596°
Eccentricity
0.0001438
Mean motion
15.49783082 rev/d
Perigee alt
416.4 km
Apogee alt
418.3 km
Semi-major
6,795.5 km
B*
-1.4294e-2
RAAN
270.7490°
Arg perigee
79.8654°
Mean anomaly
240.5074°
Rev number
496

§ Raw data

STARLINK-373081 68952U 26099B   26145.16671295 -.00746523  00000+0 -14294-1 0  99902 68952  53.1596 270.7490 0001438  79.8654 240.5074 15.49783082  4963

JSON: /api/v1/satellites/68952 · /tle

For live sub-satellite position, see the globe view (requires WebGL).

§ Visibility from observer

Set your observer location to see the next 7 days of passes ≥ 10°. The values pass through the URL so the page stays shareable.

No JS? Fill the form by hand. The geolocation button needs JavaScript.